Погода в Вогулке

Россия / Свердловская область     57°20′11″N   58°31′18″E
темп.,
°C
ветер,
м/с
пор.,
м/с
влажн.,
%
обл.,
%
осадки,
мм/ч
давл.,
гПа
погр.,
м
12 апреля, пн
пн1223:00+6юз3997100 1.3 1032335
02:00+5з3899100 1.3 1033361
05:00+4сз1499100 1.4 1035203
08:00+3ссз2491100 0.0 1036165
11:00+6ссз2378100 0.0 1037374
14:00+8ссз3471100 0.0 1038798
17:00+8ссз236395 0.0 1039829
20:00+4ссв22803 0.0 104011
13 апреля, вт
вт1323:00+2всв11890 0.0 104110
02:00+1в11885 0.0 104110
05:000вюв11853 0.0 104210
08:00+3вюв12720 0.0 1041101
11:00+9ююв23495 0.0 1040449
14:00+12ю23439 0.0 1038763
17:00+13ююз346010 0.0 1036958
20:00+10ю2287100 0.0 103550
14 апреля, ср
ср1423:00+9юз2891100 0.0 1034183
02:00+7юз2893100 0.0 1034167
05:00+6юз2894100 0.0 1033165
08:00+7юз2791100 0.0 1033180
11:00+12зюз3674100 0.0 1031517
14:00+16зюз465731 0.0 10301073
17:00+16зюз46529 0.0 10281236
20:00+12юз237114 0.0 102739
15 апреля, чт
чт1523:00+9юз238039 0.0 102750
02:00+7юз228785 0.0 102728
05:00+6юз229082 0.0 102622
08:00+8юз268310 0.0 1025159
11:00+14зюз36625 0.0 1023704
14:00+17зюз46515 0.0 10211289
17:00+17зюз46475 0.0 10191498
20:00+13юз22655 0.0 101827
16 апреля, пт
пт1623:00+9юз286444 0.0 1018144
02:00+7юз256850 0.0 101775
05:00+6юз22785 0.0 101631
08:00+8юз277329 0.0 1014203
11:00+13зюз35545 0.0 1012739
14:00+15зсз455198 0.0 10111655
17:00+9с3583100 0.3 1011437
20:00+8в249359 3.1 1011264